Regional Weather Roundup
Issued by NWS State College, PA

Home | Current Version | Previous Version | Text Only | Print | Product List | Glossary Off
Versions: 1 2 3 4 5 6 7 8 9 10 11 12 13 14 15 16 17 18 19 20 21 22 23 24 25 26 27 28 29 30 31 32 33 34 35 36 37 38 39 40 41 42 43 44 45 46 47 48 49 50

247
ASUS41 KCTP 270703
RWRCTP

REGIONAL WEATHER ROUNDUP
NATIONAL WEATHER SERVICE STATE COLLEGE PA
300 AM EDT SAT MAY 27 2017

Note: "fair" indicates few or no clouds below 12,000 feet with no
significant weather and/or obstructions to visibility.

* = STATION THAT DOES NOT REPORT PRECIPITATION /E.G. RAIN...SNOW...ETC/
    THUNDER OR FOG.

PAZ002>004-007>009-013>016-020>023-029>032-270800-
WESTERN PENNSYLVANIA

CITY           SKY/WX    TMP DP  RH WIND       PRES   REMARKS
ERIE           CLOUDY    52  50  93 S3        29.90F
MEADVILLE      PTCLDY    53  53 100 S5        29.91F
FRANKLIN*      PTCLDY    48  46  93 CALM      29.93S
NEW CASTLE     PTSUNNY   53  53 100 CALM      29.93S
BEAVER COUNTY  NOT AVBL
BUTLER*        CLOUDY    52  50  93 CALM      29.94R
PITTSBURGH INT CLOUDY    56  55  97 CALM      29.92S
PITTSBURGH     NOT AVBL
INDIANA*       CLOUDY    50  50 100 CALM      29.96S
LATROBE        PTCLDY    52  52 100 CALM      29.95S
WASHINGTON CO* CLOUDY    54  52  94 CALM      29.94F
$$

PAZ004>006-010>012-017>019-024>028-033>037-041-042-045-046-049>053-270800-
CENTRAL PENNSYLVANIA

CITY           SKY/WX    TMP DP  RH WIND       PRES   REMARKS
BRADFORD       CLOUDY    52  52 100 W3        29.92S
DUBOIS         FOG       50  48  93 CALM      29.91F VSB 1/4
CLEARFIELD     FOG       50  50 100 CALM      29.93S VSB 1
JOHNSTOWN      MOCLDY    53  51  93 W7        29.95R
ALTOONA        CLOUDY    55  52  89 SW5       29.94R
STATE COLLEGE  CLEAR     54  50  87 CALM      29.92S
WILLIAMSPORT   CLEAR     55  52  89 W7        29.89R
SELINSGROVE    CLEAR     51  51 100 CALM      29.91R
FT INDIANTOWN  CLEAR     56  53  87 SW3       29.90R
CAPITAL CITY   LGT RAIN  60  50  69 NW5       29.90R
HARRISBURG     CLEAR     57  52  83 CALM      29.90R
YORK           CLEAR     53  53 100 CALM      29.91R
$$

PAZ038>040-043-044-047-048-054-055-060>062-067>071-270800-
EASTERN PENNSYLVANIA

CITY           SKY/WX    TMP DP  RH WIND       PRES   REMARKS
SCRANTON       CLOUDY    59  56  89 CALM      29.85F
MOUNT POCONO   CLOUDY    54  53  97 NW7       29.86S
ALLENTOWN      CLEAR     58  53  84 W8        29.86R
QUAKERTOWN*    SUNNY     54  54 100 CALM      29.88S
READING        CLEAR     56  53  90 SW3       29.87R
LANCASTER      CLEAR     57  52  83 CALM      29.90R
COATESVILLE    SUNNY     55  52  88 VRB5      29.91R
POTTSTOWN      CLEAR     56  51  84 CALM      29.88F
BLUE BELL      CLEAR     54  54 100 CALM      29.88S
DOYLESTOWN     MOCLDY    57  56  96 CALM      29.86S
WILLOW GROVE   NOT AVBL
NORTH PHILA    CLEAR     60  55  83 W6        29.87F
PHILADELPHIA   CLEAR     61  52  72 SW6       29.87S
$$




USA.gov is the U.S. government's official web portal to all federal, state and local government web resources and services.